Regional Weather Roundup
Issued by NWS

Home | Current Version | Previous Version | Text Only | Print | Product List | Glossary Off
Versions: 1 2 3 4 5 6 7 8 9 10 11 12 13 14 15 16 17 18 19 20 21 22 23 24 25 26 27 28 29 30 31 32 33 34 35 36 37 38 39 40 41 42 43 44 45 46 47 48 49 50

000
ASUS43 KLSX 011859
RWRMO

WEATHER SUMMARY FOR MISSOURI
NATIONAL WEATHER SERVICE SPRINGFIELD MO
100 PM CST SUN MAR 01 2015

NOTE: "FAIR" INDICATES FEW OR NO CLOUDS BELOW 12,000 FEET WITH NO
       SIGNIFICANT WEATHER AND/OR OBSTRUCTIONS TO VISIBILITY.
       CURRENT SKY AND/OR WEATHER CONDITIONS ARE NOT AVAILABLE FOR
       CHILLICOTHE AND FARMINGTON.

MOZ001>031-035>038-043-044-053-054-012000-
...NORTHERN AND WESTERN MISSOURI...

CITY           SKY/WX    TMP DP  RH WIND       PRES   REMARKS
KANSAS CTY INT PTSUNNY   30  22  72 W5        30.39F WCI  25
KANSAS C DTWN  CLOUDY    32  21  64 NW3       30.41F
LEE`S SUMMIT   CLOUDY    30  20  66 NW6       30.40F WCI  24
ST JOSEPH      CLOUDY    29  22  75 CALM      30.41F
CHILLICOTHE      N/A     32  20  61 NW5       30.41F WCI  27
KIRKSVILLE     CLOUDY    28  19  69 CALM      30.37F

$$
MOZ066>068-077>081-088>096-101>105-012000-
...SOUTHWEST MISSOURI...

CITY           SKY/WX    TMP DP  RH WIND       PRES   REMARKS
SPRINGFIELD    CLOUDY    31  26  82 N5        30.34F WCI  26
JOPLIN         CLOUDY    30  25  81 N7        30.39F WCI  23

$$
MOZ032>034-039>042-045>050-055>058-069>072-012000-
...CENTRAL MISSOURI...

CITY           SKY/WX    TMP DP  RH WIND       PRES   REMARKS
COLUMBIA       CLOUDY    29  23  78 NW9       30.37F WCI  20
JEFFERSON CITY PTSUNNY   30  23  75 NW8       30.38F WCI  22
ROLLA          CLOUDY    28  25  88 NW5       30.32F WCI  23
SEDALIA        PTSUNNY   29  20  69 MISG      30.40F
OSAGE BEACH    CLOUDY    30  25  80 CALM      30.36F

$$
MOZ051-052-059>065-012000-
...EAST CENTRAL MISSOURI...

CITY           SKY/WX    TMP DP  RH WIND       PRES   REMARKS
ST LOUIS INTL  CLOUDY    31  24  75 NW8       30.37S WCI  23
SPIRIT OF STL  CLOUDY    30  25  81 NW6       30.37F WCI  24
ST CHARLES     CLOUDY    31  24  75 W6        30.36F WCI  25

$$
MOZ072>076-082>087-097>100-106>115-012000-
...SOUTH CENTRAL AND SOUTHEAST MISSOURI...

CITY           SKY/WX    TMP DP  RH WIND       PRES   REMARKS
CAPE GIRARDEAU CLOUDY    36  32  85 N3        30.35F
FARMINGTON     CLOUDY    32  28  86 CALM      30.37S
POPLAR BLUFF   CLOUDY    37  29  72 W3        30.34F
WEST PLAINS    CLOUDY    35  31  85 NW6       30.32F

$$


USA.gov is the U.S. government's official web portal to all federal, state and local government web resources and services.